SCP
0 0 0 0 0 0 0 0 0 0 0 1 2 3 3 4 5 5 5 5 5 5 7 9 8 7 6 6 6 6 7 7 8 9 9 9 8 7 5 4 3 3 3 2
0 0 0 0 0 0 0 0 0 0 1 1 3 3 4 4 4 4 4 4 5 7 8 8 7 6 6 6 6 6 7 7 9 9 10 10 9 7 6 4 4 3 3 3
0 0 0 0 0 0 0 0 0 0 1 2 3 3 3 4 4 3 3 5 6 7 7 6 5 5 5 5 6 7 7 7 9 10 11 10 9 8 7 5 4 4 4 4
0 0 0 0 0 0 0 0 0 0 1 1 1 2 2 3 4 3 4 4 6 7 7 6 6 6 6 6 6 7 7 8 9 10 11 11 10 9 8 7 6 5 4 4
0 0 0 0 0 0 0 0 0 0 0 0 0 1 1 2 3 3 3 4 5 6 7 7 7 7 8 8 7 8 8 9 10 11 11 11 11 10 10 9 8 6 5 4
0 0 0 0 0 0 0 0 0 0 0 0 0 1 1 2 3 3 4 4 5 6 7 7 7 7 8 8 8 8 8 9 11 12 12 12 12 11 11 10 9 8 7 5
0 0 0 0 0 0 0 0 0 0 0 0 0 1 1 1 2 4 4 4 5 6 5 5 5 5 6 6 6 7 8 9 11 13 13 13 12 12 11 10 9 8 7 6
0 0 0 0 0 0 0 0 0 0 0 0 0 1 1 1 2 4 5 6 7 7 5 4 4 4 4 4 5 6 8 9 11 12 13 12 12 12 11 11 10 8 7 6
0 0 0 0 0 0 0 0 0 0 0 0 0 1 1 2 3 5 7 7 9 9 7 5 4 3 3 3 4 6 8 9 11 12 12 12 11 11 11 11 10 8 6 5
0 0 0 0 0 0 0 0 0 0 0 0 0 1 1 2 4 7 8 8 9 9 7 5 4 3 3 3 4 6 8 9 10 11 11 11 11 11 11 11 10 8 6 5
0 0 0 0 0 0 0 0 0 0 0 0 0 0 1 2 4 6 6 7 7 7 6 5 4 4 4 4 5 7 8 9 10 11 12 11 11 10 10 9 8 7 6 5
0 0 0 0 0 0 0 0 0 0 0 0 0 0 1 3 4 5 5 5 5 5 5 4 4 4 4 5 6 8 8 9 10 10 10 10 9 9 9 8 7 6 5 5
0 0 0 0 0 0 0 0 0 0 0 0 0 0 1 3 5 4 4 4 4 4 4 4 4 4 4 4 6 7 7 8 8 8 8 8 7 7 7 7 6 5 5 5
0 0 0 0 0 0 0 0 0 0 0 0 0 1 1 3 4 4 4 3 3 4 4 3 3 3 3 4 5 6 7 6 6 6 6 5 5 5 5 5 5 4 4 4
0 0 0 0 0 0 0 0 0 0 0 0 0 1 2 2 3 4 5 5 4 4 4 4 4 4 4 5 6 6 6 5 5 5 4 4 3 3 3 3 3 3 2 2
0 0 0 0 0 0 0 0 0 0 0 0 0 1 2 2 2 4 6 7 6 5 4 4 5 5 5 5 5 5 4 4 5 5 4 3 2 2 2 2 2 2 2 2
0 0 0 0 0 0 0 0 0 0 0 0 1 2 3 3 2 3 5 7 6 5 4 4 4 5 4 4 3 3 3 4 5 5 4 3 3 2 2 1 1 1 1 1
0 0 0 0 0 0 0 0 0 0 0 1 1 3 4 4 3 3 5 6 5 4 4 3 3 4 4 3 3 3 3 3 4 5 4 3 3 2 2 2 1 1 1 1
0 0 0 0 0 0 0 0 0 0 0 0 1 4 6 6 4 4 5 5 4 4 3 2 3 4 4 3 3 2 2 2 3 4 4 4 3 3 2 2 2 1 1 1
0 0 0 0 0 0 0 0 0 0 0 0 2 5 8 7 5 3 3 4 3 3 3 2 2 3 3 3 3 2 2 2 3 4 4 4 3 3 3 2 2 2 1 1
0 0 0 0 0 0 0 0 0 0 0 1 2 5 7 6 4 3 2 3 2 2 2 2 2 2 2 2 2 2 2 2 3 4 5 4 4 3 3 3 2 2 1 1
0 0 0 0 0 0 0 1 1 1 1 1 3 5 6 4 3 3 3 3 2 2 1 2 2 2 2 2 2 2 2 2 3 4 5 4 4 4 3 3 2 1 1 1
0 0 0 0 0 0 0 1 1 1 1 2 3 4 4 4 3 4 4 3 2 1 1 1 1 1 1 1 1 1 1 2 4 5 5 5 4 4 3 2 2 1 1 1
0 0 0 0 0 0 0 0 1 1 2 3 4 5 5 4 4 4 4 3 1 0 0 0 0 0 0 0 1 1 1 2 4 5 5 5 4 3 2 2 1 1 1 1
0 0 0 0 0 0 0 0 1 1 2 3 4 5 5 4 3 3 3 2 1 0 0 0 0 0 0 0 0 0 1 3 5 5 5 5 4 3 2 1 1 1 1 1
0 0 0 0 0 0 0 0 1 1 2 3 4 5 5 3 2 2 1 1 0 0 0 0 0 0 0 1 0 0 1 3 5 5 6 5 4 3 2 1 1 1 0 0
Wind_Speed
2 2 5 8 8 8 6 5 7 9 6 0 2 3 3 3 4 5 5 5 5 5 5 6 7 7 6 5 6 6 7 6 5 4 4 3 3 2 2 2 3 4 3 4
3 6 11 8 6 6 7 7 9 8 5 1 2 2 1 1 4 7 8 7 5 4 4 6 6 6 6 6 6 5 6 6 6 4 4 3 3 2 2 2 2 3 4 4
7 10 7 6 7 7 8 7 8 6 3 3 1 4 3 3 1 1 4 7 7 8 8 7 6 6 6 6 6 6 5 5 5 5 3 3 2 1 1 1 2 2 3 4
7 10 7 6 7 7 8 9 7 5 1 3 1 2 6 2 1 1 1 2 4 5 7 7 6 6 6 6 5 5 4 4 5 5 5 5 4 3 3 3 2 2 3 4
6 5 5 6 8 7 8 8 5 4 2 1 1 2 5 1 1 2 1 3 3 5 6 7 6 5 4 4 4 4 4 4 4 5 5 5 4 3 2 2 3 2 2 3
8 6 4 6 6 5 3 2 5 4 4 2 4 4 4 3 5 3 2 3 3 4 5 6 5 5 4 3 3 4 4 4 4 5 5 5 5 4 4 3 4 3 2 2
6 6 4 2 3 5 2 5 4 5 3 5 3 3 5 5 5 7 6 4 4 5 5 5 6 5 5 4 3 3 4 3 3 4 4 4 5 5 5 4 4 3 2 2
2 6 4 2 3 3 2 7 7 5 5 5 2 2 4 3 3 4 6 5 4 5 5 6 6 5 4 5 4 4 4 3 3 4 3 3 4 4 3 3 3 4 3 3
3 5 4 3 2 3 1 2 7 7 2 1 3 2 3 2 0 3 5 5 4 5 5 5 5 5 4 4 5 6 5 3 3 4 3 3 3 4 4 3 3 2 2 3
3 3 5 4 4 2 3 3 5 5 3 2 3 3 4 3 3 2 3 4 4 4 4 4 4 4 4 4 4 5 5 5 4 4 4 3 3 3 3 3 3 3 3 3
3 2 4 4 1 2 3 2 3 3 4 5 3 5 4 6 5 3 2 2 3 4 4 3 4 3 3 3 3 3 4 3 3 4 3 3 2 2 3 3 3 4 3 4
2 4 2 5 4 2 3 2 4 3 2 3 4 6 3 3 3 4 3 2 3 4 4 4 4 3 3 3 3 2 3 3 3 4 3 3 3 3 2 3 3 3 3 3
3 5 2 6 7 5 3 2 2 3 3 2 3 5 2 3 3 3 4 3 3 4 5 4 3 3 2 2 2 2 3 4 3 3 3 3 2 2 3 3 3 3 3 3
5 4 5 5 5 2 2 3 2 3 2 2 4 4 3 1 2 2 2 3 3 4 5 4 3 2 1 1 2 2 2 3 3 3 3 3 3 3 3 3 3 3 3 3
6 2 2 3 2 1 2 3 1 1 4 4 4 4 5 4 4 4 4 4 5 4 4 4 3 2 1 1 1 2 2 2 2 3 3 2 2 2 2 2 2 2 2 2
4 2 1 2 1 2 4 3 2 2 2 3 2 3 3 2 3 3 3 5 6 4 3 3 3 3 2 1 2 2 2 2 2 3 2 2 2 2 2 2 2 2 2 1
2 3 2 2 3 3 4 3 2 1 1 2 4 4 3 3 4 4 3 4 4 4 3 3 3 3 2 1 2 2 2 2 2 2 2 2 3 3 2 2 2 2 2 1
4 3 3 1 2 3 5 2 1 1 2 1 2 3 5 4 3 3 4 4 4 3 2 2 2 2 1 1 2 2 3 3 3 2 2 2 2 2 2 2 1 1 1 1
5 6 3 2 2 4 4 3 1 1 2 1 3 4 4 4 3 2 1 4 3 3 2 2 3 2 2 2 3 3 3 3 3 2 1 1 2 2 1 1 1 1 1 1
4 5 5 2 2 4 5 5 3 3 1 2 4 5 4 5 2 3 1 2 2 2 2 2 2 3 2 1 2 3 3 3 2 1 1 1 1 2 1 2 1 1 1 1
3 3 2 2 3 4 4 5 3 2 5 3 2 4 4 3 4 4 3 2 3 3 3 3 3 3 1 1 3 3 2 2 2 2 1 1 1 1 1 1 1 1 1 1
2 2 1 2 2 6 4 2 1 3 2 1 1 3 3 2 2 3 4 3 4 3 3 3 3 2 1 1 3 3 1 1 1 1 1 1 1 1 1 1 1 1 1 1
2 4 4 4 5 4 2 2 2 2 1 1 1 1 3 4 4 4 3 4 3 3 2 2 3 2 2 1 2 2 1 0 1 1 1 1 1 1 1 1 1 0 1 1
2 1 3 1 3 2 1 1 1 1 1 1 1 3 4 4 4 4 4 3 3 2 2 1 2 2 1 1 1 1 1 0 1 1 0 0 0 1 0 1 1 1 1 2
2 1 1 1 3 1 1 0 0 1 2 2 1 3 4 5 4 3 3 3 3 2 1 2 2 2 1 0 0 1 1 0 1 1 1 0 0 0 0 1 1 2 2 3
2 3 4 5 5 4 3 2 0 2 2 1 2 3 4 5 4 3 3 3 3 3 1 1 1 1 0 0 0 1 1 1 1 1 1 1 1 1 0 0 2 3 3 3
Wind_Direction
247 110 234 231 213 212 232 260 272 272 269 228 213 226 234 197 166 169 169 157 163 177 175 149 148 141 132 134 146 155 153 158 154 155 155 157 167 168 169 177 177 176 171 162
5 254 238 234 239 237 245 260 272 286 278 196 196 250 298 209 188 180 170 170 164 160 147 146 146 139 142 143 146 152 159 162 163 168 170 166 161 172 175 176 182 182 171 167
211 245 243 232 248 248 254 240 245 246 305 341 68 340 323 317 347 168 165 169 167 161 154 153 148 148 147 154 160 158 164 164 164 157 141 121 103 94 110 173 195 199 169 165
239 253 255 248 251 228 254 248 235 236 194 272 159 255 290 292 352 5 147 143 151 147 140 145 145 152 161 170 167 154 154 156 162 158 154 157 161 176 197 193 192 185 172 161
254 257 256 248 245 230 235 244 238 233 203 273 323 158 269 292 251 255 198 153 151 146 143 144 143 146 154 160 153 153 154 157 161 163 165 166 174 190 186 170 164 169 170 171
250 263 239 237 258 247 239 4 8 34 68 297 253 173 258 240 219 199 201 167 154 137 135 134 129 126 124 138 147 152 159 167 168 168 168 168 174 175 164 163 165 169 167 171
292 289 277 261 299 319 44 78 20 350 353 253 244 165 238 241 204 176 174 180 167 145 142 136 129 129 137 143 157 153 164 171 170 169 173 173 174 173 171 171 167 168 164 171
260 287 285 285 201 226 237 144 163 205 233 271 320 213 250 260 193 165 163 167 159 153 156 151 145 143 151 157 164 162 164 173 172 171 179 168 162 162 167 169 165 174 180 185
206 263 296 309 287 161 203 204 178 155 202 246 266 266 309 350 178 165 159 153 152 146 156 158 151 145 146 158 169 172 172 173 172 174 171 163 160 158 160 158 156 167 179 175
175 259 297 313 356 359 157 166 85 107 154 247 266 236 231 226 230 192 149 152 159 149 149 153 152 143 144 158 174 172 176 179 173 168 171 163 163 164 162 152 157 165 172 167
134 166 304 350 23 295 15 41 95 126 154 164 236 265 230 193 188 160 131 132 156 146 140 136 139 140 133 131 148 173 178 168 163 171 173 162 166 164 161 168 175 169 166 164
149 126 248 265 267 237 127 125 125 143 234 174 178 257 294 160 150 137 123 115 137 141 135 129 125 116 112 125 146 163 172 164 170 170 164 168 171 165 169 179 178 165 165 169
103 104 47 338 341 6 55 53 95 126 125 163 182 257 337 63 86 101 109 109 123 119 109 107 109 112 121 138 152 154 184 172 171 162 160 160 166 169 181 181 166 159 164 168
94 105 155 197 236 282 333 343 37 97 151 214 218 232 297 51 109 97 102 106 115 118 119 116 114 123 129 142 161 164 168 166 162 159 157 162 183 186 183 175 163 166 164 168
84 113 192 220 249 327 333 306 335 205 203 198 226 215 232 196 168 147 134 134 123 113 115 119 123 121 114 147 159 148 143 139 148 142 145 164 174 166 158 160 163 166 167 177
71 103 29 317 323 342 324 314 296 269 243 213 209 251 231 149 121 117 123 124 122 121 120 130 129 124 126 148 138 121 129 135 132 134 150 157 141 140 146 158 161 159 171 189
104 107 78 288 308 348 301 285 248 269 281 202 226 231 157 126 130 147 150 129 126 128 120 127 132 131 131 141 129 132 141 130 123 134 140 134 126 127 140 147 140 166 176 175
145 127 141 204 13 249 254 272 190 117 347 25 128 143 149 154 163 154 141 129 121 123 126 142 141 130 118 115 115 112 110 115 118 118 125 133 130 133 134 125 146 174 167 164
151 146 135 133 196 266 289 306 305 220 317 14 122 124 105 99 78 50 107 124 138 158 156 165 155 139 132 129 130 108 98 106 109 116 131 141 145 144 145 162 201 198 162 170
63 108 123 136 172 237 270 299 315 98 266 296 122 132 136 112 117 232 213 127 119 124 138 132 113 105 108 132 126 114 115 114 129 155 166 162 153 149 163 192 204 188 170 189
31 44 114 163 212 251 278 311 23 110 249 281 137 141 143 156 194 203 179 147 130 128 126 113 106 98 107 137 122 120 122 156 185 174 148 148 151 165 177 177 190 179 168 163
153 147 178 161 203 250 295 16 122 226 258 242 163 153 134 128 119 125 129 127 109 99 107 113 103 81 58 99 116 115 146 234 173 146 150 187 198 190 154 155 193 172 153 161
165 183 176 184 215 247 265 190 204 169 190 220 176 165 127 123 129 128 128 126 115 106 103 103 109 90 51 54 113 131 246 11 102 129 180 223 221 205 178 171 186 185 163 193
275 116 119 163 254 257 279 9 26 105 168 221 150 127 120 119 134 132 135 131 125 117 115 108 106 102 71 19 98 174 237 139 127 135 158 293 287 302 297 183 181 193 214 218
238 117 110 223 250 284 310 281 261 94 85 80 79 123 128 125 134 142 145 148 149 145 138 131 136 137 174 229 273 296 286 155 168 182 175 193 309 293 309 297 248 227 239 228
240 193 187 221 218 190 230 247 96 96 107 137 143 128 131 137 142 140 154 163 156 152 132 119 125 149 210 139 322 310 291 205 166 185 192 176 189 248 260 324 331 315 290 293